Everett, WA

2:44 AM PST on December 06, 2019 (GMT -0800)
Snohomish County

Weather History for KPAE - October, 2019

Change the Weather History Date:

Tuesday, October 1, 2019

  Actual Average Record
Temperature  
Mean Temperature 50 °F -  
Max Temperature 59 °F 65 °F 78 °F (1992)
Min Temperature 42 °F 46 °F 33 °F (1948)
Degree Days  
Heating Degree Days 16    
Moisture  
Dew Point 37 °F    
Average Humidity 63    
Maximum Humidity 80    
Minimum Humidity 41    
Precipitation  
Precipitation 0.00 in - - ()
Sea Level Pressure  
Sea Level Pressure 30.17 in    
Wind  
Wind Speed 4 mph (SE)    
Max Wind Speed 7 mph    
Max Gust Speed -    
Visibility 10 miles    
Events      
Averages and records for this station are not official NWS values.
T = Trace of Precipitation, MM = Missing Value Source: NWS Daily Summary

Daily Weather History Graph

Daily Weather History Graph

Search for Another Location

Airport or City:

Astronomy

Oct. 01, 2019 Rise Set
Actual Time 7:08 AM PDT 6:48 PM PDT
Civil Twilight 6:37 AM PDT 7:19 PM PDT
Nautical Twilight 6:01 AM PDT 7:55 PM PDT
Astronomical Twilight 5:24 AM PDT 8:31 PM PDT
Moon 10:43 AM PDT (10/1) 8:50 PM PDT (10/1)
Length of Visible Light 12h 42m
Length of Day
11h 40m
Waxing Crescent, 13% of the Moon is Illuminated
Oct 1
Waxing Crescent
Oct 5
First Quarter
Oct 13
Full
Oct 21
Last Quarter
Oct 27
New

Hourly Weather History & Observations

Time (PDT) Temp. Windchill Dew Point Humidity Pressure Visibility Wind Dir Wind Speed Gust Speed Precip Events Conditions
12:53 AM 43.0 °F 41.3 °F 34.0 °F 71% 30.17 in 10.0 mi South 3.5 mph - N/A   Clear
1:53 AM 46.0 °F 43.9 °F 35.1 °F 66% 30.18 in 10.0 mi ESE 4.6 mph - N/A   Clear
2:53 AM 44.1 °F - 35.1 °F 71% 30.19 in 10.0 mi Calm Calm - N/A   Clear
3:53 AM 42.1 °F - 35.1 °F 76% 30.19 in 10.0 mi Calm Calm - N/A   Clear
4:53 AM 43.0 °F 41.3 °F 35.1 °F 74% 30.19 in 10.0 mi ESE 3.5 mph - N/A   Clear
5:53 AM 43.0 °F 38.8 °F 37.0 °F 80% 30.19 in 10.0 mi SSE 6.9 mph - N/A   Clear
6:53 AM 44.1 °F - 36.0 °F 73% 30.20 in 10.0 mi Calm Calm - N/A   Clear
7:53 AM 43.0 °F 39.5 °F 36.0 °F 76% 30.21 in 10.0 mi SSE 5.8 mph - N/A   Clear
8:53 AM 46.0 °F 43.9 °F 37.0 °F 71% 30.21 in 10.0 mi SSE 4.6 mph - N/A   Clear
9:53 AM 48.9 °F - 36.0 °F 61% 30.21 in 10.0 mi SSE 4.6 mph - N/A   Clear
10:53 AM 52.0 °F - 37.9 °F 59% 30.21 in 10.0 mi SSE 4.6 mph - N/A   Clear
11:53 AM 53.1 °F - 41.0 °F 64% 30.20 in 10.0 mi SW 4.6 mph - N/A   Clear
12:53 PM 55.0 °F - 39.0 °F 55% 30.19 in 10.0 mi West 5.8 mph - N/A   Clear
1:53 PM 57.0 °F - 36.0 °F 45% 30.17 in 10.0 mi West 4.6 mph - N/A   Clear
2:53 PM 57.9 °F - 35.1 °F 42% 30.17 in 10.0 mi Variable 6.9 mph - N/A   Clear
3:53 PM 57.9 °F - 34.0 °F 41% 30.16 in 10.0 mi WNW 5.8 mph - N/A   Clear
4:53 PM 57.9 °F - 35.1 °F 42% 30.14 in 10.0 mi NW 4.6 mph - N/A   Clear
5:53 PM 57.0 °F - 34.0 °F 42% 30.14 in 10.0 mi Variable 3.5 mph - N/A   Clear
6:53 PM 53.1 °F - 36.0 °F 52% 30.14 in 10.0 mi Calm Calm - N/A   Clear
7:53 PM 50.0 °F - 37.9 °F 63% 30.14 in 10.0 mi North 4.6 mph - N/A   Mostly Cloudy
8:53 PM 50.0 °F - 39.9 °F 68% 30.14 in 10.0 mi North 3.5 mph - N/A   Clear
9:53 PM 51.1 °F - 43.0 °F 74% 30.14 in 10.0 mi NE 3.5 mph - N/A   Clear
10:53 PM 51.1 °F - 43.0 °F 74% 30.13 in 10.0 mi ENE 4.6 mph - N/A   Clear
11:53 PM 48.9 °F - 39.9 °F 71% 30.13 in 10.0 mi East 5.8 mph - N/A   Clear